Regional Weather Roundup
Issued by NWS

Home | Current Version | Previous Version | Text Only | Print | Product List | Glossary Off
Versions: 1 2 3 4 5 6 7 8 9 10 11 12 13 14 15 16 17 18 19 20 21 22 23 24 25 26 27 28 29 30 31 32 33 34 35 36 37 38 39 40 41 42 43 44 45 46 47 48 49 50

000
ASUS43 KDTX 111301
RWRMI
MICHIGAN HOURLY REGIONAL WEATHER ROUNDUP
NATIONAL WEATHER SERVICE DETROIT/PONTIAC MI
800 AM EST MON DEC 11 2017

NOTE: "FAIR" INDICATES FEW OR NO CLOUDS BELOW 12,000 FEET WITH NO
SIGNIFICANT WEATHER AND/OR OBSTRUCTION TO VISIBILITY.

MIZ047>049-052>055-059>063-066>070-074>076-081>083-111400-
SOUTHEAST LOWER MICHIGAN

CITY           SKY/WX    TMP DP  RH WIND       PRES   REMARKS
ADRIAN         CLOUDY    24  20  84 SE6       30.03F WCI  17
ANN ARBOR      CLOUDY    23  20  88 CALM      30.03R
BAD AXE        CLOUDY    16  10  78 SW5       30.02R WCI   9
CARO           CLOUDY    15  11  85 CALM      30.02S
DETROIT CITY   CLOUDY    23  15  71 N5        30.06R WCI  17
DETROIT        CLOUDY    26  17  68 CALM      30.06R
FLINT          CLOUDY    19  12  74 SE7       30.03R WCI  10
GROSSE ILE     CLOUDY    26  19  77 CALM      30.04S
HILLSDALE      CLOUDY    27  21  80 S3        29.99S
HOWELL         CLOUDY    22  18  85 SE6       30.01S WCI  14

CITY           SKY/WX    TMP DP  RH WIND       PRES   REMARKS
JACKSON        CLOUDY    25  19  78 SE5       30.00S WCI  19
LAMBERTVILLE   CLOUDY    24  21  90 CALM      30.05R
LANSING        CLOUDY    22  13  68 SE6       30.01F WCI  14
LAPEER         CLOUDY    16  10  77 CALM      30.04R
MASON          CLOUDY    23  11  61 CALM      30.01F
MONROE         CLOUDY    24  20  85 CALM      30.05R
MT. CLEMENS    CLOUDY    19  13  75 N3        30.05R
PONTIAC        CLOUDY    20  15  81 CALM      30.02R
PORT HOPE        N/A     18   9  68 SW6       30.00S WCI  10
PORT HURON     CLOUDY    14   9  79 CALM      30.06R
TRI CITIES     CLOUDY    18  14  84 S9        30.01F WCI   7
MIDLAND        CLOUDY    19  14  79 S5        29.99F WCI  13
TROY           CLOUDY    22  16  76 E5        30.06R WCI  16
SAGINAW HB     CLOUDY    19  14  79 S7        30.01F WCI  10
$$
MIZ043>046-050>051-056>058-064>065-071>073-077>080-111400-
SOUTHWEST LOWER MICHIGAN

CITY           SKY/WX    TMP DP  RH WIND       PRES   REMARKS
BATTLE CREEK   LGT SNOW  27  22  81 S7        29.99F WCI  19
BENTON HARBOR  LGT SNOW  28  21  75 S8        29.98F WCI  20
BIG RAPIDS     CLOUDY    20  13  73 S5        29.94F WCI  14
COLDWATER      CLOUDY    28  23  82 S5        30.00S WCI  22
FREMONT        LGT SNOW  22  19  89 SE6       29.94F WCI  15
HOLLAND        LGT SNOW  26  22  84 SE9       29.96F FOG     WCI  17
GRAND RAPIDS   LGT SNOW  24  22  91 SE10      29.97F FOG     WCI  14
IONIA          CLOUDY    22  13  67 E7        29.98F WCI  14
KALAMAZOO      LGT SNOW  28  22  78 S9        29.98F WCI  19
LUDINGTON      LGT SNOW  22  16  77 SE8       29.93F WCI  13
MARSHALL       CLOUDY    26  22  87 CALM      29.99F
MOUNT PLEASANT CLOUDY    20  14  76 S6        29.98F WCI  13
MUSKEGON       LGT SNOW  24  20  84 SE9       29.95F FOG     WCI  14
SOUTH HAVEN    LGT SNOW  29  24  82 S9        29.97F WCI  21
$$
MIZ016>042-111400-
NORTHERN LOWER MICHIGAN

CITY           SKY/WX    TMP DP  RH WIND       PRES   REMARKS
ALPENA         CLOUDY    17  10  74 SW5       29.98F WCI  10
BEAVER ISLAND  CLOUDY    19  14  81 CALM      29.93S
BELLAIRE       CLOUDY    19  15  85 S5        29.96R WCI  12
CADILLAC       CLOUDY    18  12  78 SE5       29.90S WCI  11
CHARLEVOIX     CLOUDY    19  14  81 SE6       29.96S WCI  11
FRANKFORT      FLURRIES  22  15  74 SE6       29.93F WCI  15
GAYLORD        CLOUDY    14   9  80 S6        29.90S WCI   5
GRAYLING       CLOUDY    16  11  79 CALM      29.94R
HARBOR SPRINGS CLOUDY    17  10  74 E3        29.94S
HOUGHTON LAKE  CLOUDY    17  11  77 S6        29.94S WCI   9
MANISTEE       FLURRIES  21  15  78 SE7       29.93F WCI  12
OSCODA         CLOUDY    15   8  73 SW6       30.00F WCI   7
PELLSTON       CLOUDY    17  10  74 SE3       29.95S
ROGERS CITY    CLOUDY    16  10  77 S5        29.98S WCI   9
TRAVERSE CITY  CLOUDY    21  13  71 VRB3      29.94S
$$
MIZ007>008-015-111400-
EASTERN UPPER MICHIGAN

CITY           SKY/WX    TMP DP  RH WIND       PRES   REMARKS
MACKINAC ISLAN CLOUDY    20  15  79 SE3       29.93F
NEWBERRY       CLOUDY    13  12  96 E3        29.90F
S. S. MARIE    CLOUDY     6   0  76 E8        29.96S WCI  -7
MUNISING         N/A     15   9  76 SW6       29.90S WCI   6
$$
MIZ004>006-011>014-085-111400-
CENTRAL UPPER MICHIGAN

CITY           SKY/WX    TMP DP  RH WIND       PRES   REMARKS
MANISTIQUE     CLOUDY    15   4  60 CALM      29.92S
ESCANABA       FLURRIES  16  12  84 CALM      29.91S
MENOMINEE      LGT SNOW  21  17  84 S5        29.92S FOG     WCI  15
SAWYER-GWINN   CLOUDY    10   7  85 S10       29.84F WCI  -3
$$
MIZ001>003-009>011-084-111400-
WESTERN UPPER MICHIGAN

CITY           SKY/WX    TMP DP  RH WIND       PRES   REMARKS
IRON MOUNTAIN  LGT SNOW  14  10  84 S7        29.83F VSB 1   WCI   4
HOUGHTON       LGT SNOW  15   9  76 S8        29.78F WCI   4
COPPER HARBOR    N/A     19  10  68 VRB3      29.81F
IRONWOOD       LGT SNOW  18  15  88 S8        29.74F FOG     WCI   8
$$

ABBREVIATIONS USED IN REMARKS
   TC - TEMPERATURE IN CELSIUS
  WCI - WIND CHILL INDEX
   HX - HEAT INDEX
  VSB - VISIBILITY




USA.gov is the U.S. government's official web portal to all federal, state and local government web resources and services.